SIM NZAR-NZHN

Flight info

Callsign SIM
Flight time 0h 24m
Altitude 6000
Route ORIDI DCT HN
Aircraft SF50/L-SDGRWY/L

Departure

Time 2026-04-26 09:29
Airport Ardmore Airport (NZAR)

Arrival

Time 2026-04-26 09:53
Airport Hamilton International Airport (NZHN)
Time Latitude Longitude Altitude Speed Heading
2026-04-26 08:48 -37.03617 174.96975 109 ft 0 kts 46°
2026-04-26 09:22 -37.03602 174.96989 109 ft 3 kts 322°
2026-04-26 09:22 -37.03601 174.96988 109 ft 0 kts 281°
2026-04-26 09:23 -37.03595 174.96976 109 ft 6 kts 311°
2026-04-26 09:23 -37.03544 174.96963 109 ft 14 kts 47°
2026-04-26 09:23 -37.03456 174.97078 109 ft 23 kts 45°
2026-04-26 09:23 -37.03324 174.97244 110 ft 31 kts 46°
2026-04-26 09:24 -37.03154 174.97459 110 ft 36 kts 45°
2026-04-26 09:24 -37.02992 174.97666 110 ft 30 kts 45°
2026-04-26 09:24 -37.02856 174.97839 110 ft 25 kts 43°
2026-04-26 09:24 -37.02807 174.98016 109 ft 21 kts 90°
2026-04-26 09:25 -37.02753 174.98103 109 ft 15 kts 332°
2026-04-26 09:25 -37.02687 174.98061 109 ft 0 kts 329°
2026-04-26 09:27 -37.02680 174.98054 109 ft 7 kts 327°
2026-04-26 09:27 -37.02690 174.97949 110 ft 10 kts 228°
2026-04-26 09:28 -37.02693 174.97946 110 ft 0 kts 226°
2026-04-26 09:28 -37.02693 174.97945 110 ft 1 kts 226°
2026-04-26 09:28 -37.02901 174.97682 111 ft 81 kts 226°
2026-04-26 09:28 -37.03378 174.97057 413 ft 119 kts 226°
2026-04-26 09:29 -37.04104 174.96297 955 ft 151 kts 216°
2026-04-26 09:29 -37.04914 174.95587 1677 ft 138 kts 215°
2026-04-26 09:29 -37.05832 174.94814 2203 ft 174 kts 214°
2026-04-26 09:29 -37.06845 174.93981 3034 ft 191 kts 213°
2026-04-26 09:30 -37.08057 174.93033 3156 ft 201 kts 211°
2026-04-26 09:30 -37.09226 174.92143 2890 ft 197 kts 213°
2026-04-26 09:30 -37.10323 174.91204 2871 ft 183 kts 216°
2026-04-26 09:30 -37.11466 174.90734 2807 ft 176 kts 179°
2026-04-26 09:31 -37.12682 174.90813 2766 ft 175 kts 177°
2026-04-26 09:31 -37.13858 174.90893 3086 ft 167 kts 178°
2026-04-26 09:31 -37.15154 174.90971 3597 ft 204 kts 178°
2026-04-26 09:31 -37.16639 174.91210 4115 ft 227 kts 163°
2026-04-26 09:32 -37.17945 174.92425 4611 ft 244 kts 131°
2026-04-26 09:32 -37.19150 174.93991 5125 ft 255 kts 137°
2026-04-26 09:32 -37.20481 174.95499 5626 ft 260 kts 139°
2026-04-26 09:32 -37.21964 174.96830 5991 ft 268 kts 149°
2026-04-26 09:33 -37.23701 174.97747 5995 ft 259 kts 165°
2026-04-26 09:33 -37.25334 174.98186 5991 ft 225 kts 170°
2026-04-26 09:33 -37.26803 174.98558 5990 ft 207 kts 167°
2026-04-26 09:33 -37.28151 174.99009 5991 ft 195 kts 165°
2026-04-26 09:34 -37.29432 174.99447 5992 ft 187 kts 166°
2026-04-26 09:34 -37.30671 174.99866 5990 ft 182 kts 163°
2026-04-26 09:34 -37.31808 175.00531 5910 ft 182 kts 153°
2026-04-26 09:34 -37.32945 175.01265 5787 ft 185 kts 154°
2026-04-26 09:35 -37.34103 175.01991 5661 ft 187 kts 154°
2026-04-26 09:35 -37.35270 175.02725 5541 ft 188 kts 154°
2026-04-26 09:35 -37.36446 175.03457 5417 ft 189 kts 154°
2026-04-26 09:35 -37.37625 175.04186 5292 ft 189 kts 154°
2026-04-26 09:36 -37.38808 175.04915 5168 ft 190 kts 154°
2026-04-26 09:36 -37.39980 175.05632 5036 ft 190 kts 154°
2026-04-26 09:36 -37.41184 175.06365 4918 ft 190 kts 155°
2026-04-26 09:36 -37.42172 175.06965 4822 ft 190 kts 155°
2026-04-26 09:37 -37.43360 175.07686 4682 ft 190 kts 154°
2026-04-26 09:37 -37.44549 175.08412 4564 ft 190 kts 154°
2026-04-26 09:37 -37.45725 175.09132 4380 ft 193 kts 154°
2026-04-26 09:37 -37.46946 175.09880 4135 ft 197 kts 154°
2026-04-26 09:38 -37.48186 175.10642 3887 ft 199 kts 154°
2026-04-26 09:38 -37.49438 175.11411 3639 ft 201 kts 154°
2026-04-26 09:38 -37.50697 175.12185 3389 ft 202 kts 154°
2026-04-26 09:38 -37.51917 175.13052 3136 ft 201 kts 143°
2026-04-26 09:39 -37.53058 175.14042 3004 ft 195 kts 151°
2026-04-26 09:39 -37.54226 175.14827 3000 ft 187 kts 153°
2026-04-26 09:39 -37.55363 175.15581 2995 ft 182 kts 153°
2026-04-26 09:39 -37.56473 175.16315 2992 ft 179 kts 153°
2026-04-26 09:40 -37.57569 175.17041 2990 ft 177 kts 153°
2026-04-26 09:40 -37.58653 175.17759 2990 ft 175 kts 153°
2026-04-26 09:40 -37.59729 175.18472 2993 ft 173 kts 153°
2026-04-26 09:40 -37.60746 175.19148 2990 ft 158 kts 153°
2026-04-26 09:41 -37.61680 175.19766 2990 ft 145 kts 153°
2026-04-26 09:41 -37.62493 175.20310 2994 ft 121 kts 153°
2026-04-26 09:41 -37.63187 175.20758 2988 ft 104 kts 154°
2026-04-26 09:41 -37.63808 175.21161 2991 ft 100 kts 154°
2026-04-26 09:42 -37.64438 175.21564 2993 ft 104 kts 154°
2026-04-26 09:42 -37.65099 175.22021 3005 ft 112 kts 141°
2026-04-26 09:42 -37.65561 175.22836 3011 ft 118 kts 114°
2026-04-26 09:42 -37.65825 175.23842 3007 ft 123 kts 101°
2026-04-26 09:43 -37.65832 175.24932 3010 ft 126 kts 81°
2026-04-26 09:43 -37.65636 175.26022 3009 ft 129 kts 74°
2026-04-26 09:43 -37.65423 175.27127 3008 ft 130 kts 79°
2026-04-26 09:43 -37.65311 175.28266 3010 ft 131 kts 83°
2026-04-26 09:44 -37.65239 175.29027 3008 ft 132 kts 85°
2026-04-26 09:44 -37.65211 175.30580 3010 ft 133 kts 89°
2026-04-26 09:44 -37.65197 175.31351 3008 ft 133 kts 89°
2026-04-26 09:44 -37.65181 175.32520 3009 ft 133 kts 89°
2026-04-26 09:45 -37.65156 175.34086 3009 ft 133 kts 89°
2026-04-26 09:45 -37.65185 175.34858 3008 ft 133 kts 96°
2026-04-26 09:45 -37.65286 175.36022 3009 ft 133 kts 96°
2026-04-26 09:45 -37.65380 175.37188 3009 ft 134 kts 96°
2026-04-26 09:46 -37.65474 175.38353 3009 ft 134 kts 96°
2026-04-26 09:46 -37.65585 175.39516 3007 ft 133 kts 104°
2026-04-26 09:46 -37.66199 175.40301 2990 ft 132 kts 170°
2026-04-26 09:46 -37.67074 175.40065 3001 ft 129 kts 199°
2026-04-26 09:47 -37.67960 175.39871 3004 ft 130 kts 187°
2026-04-26 09:47 -37.68848 175.39669 3004 ft 130 kts 196°
2026-04-26 09:47 -37.69721 175.39363 3005 ft 130 kts 195°
2026-04-26 09:47 -37.70597 175.39066 3006 ft 131 kts 196°
2026-04-26 09:48 -37.71476 175.38768 3006 ft 131 kts 195°
2026-04-26 09:48 -37.72362 175.38466 2955 ft 134 kts 196°
2026-04-26 09:48 -37.73232 175.38153 2814 ft 128 kts 197°
2026-04-26 09:48 -37.74080 175.37824 2613 ft 126 kts 198°
2026-04-26 09:49 -37.74916 175.37474 2409 ft 126 kts 198°
2026-04-26 09:49 -37.75773 175.37179 2172 ft 127 kts 197°
2026-04-26 09:49 -37.76616 175.36865 1975 ft 126 kts 197°
2026-04-26 09:49 -37.77448 175.36588 1791 ft 125 kts 194°
2026-04-26 09:50 -37.78317 175.36300 1560 ft 126 kts 197°
2026-04-26 09:50 -37.79126 175.35992 1412 ft 123 kts 197°
2026-04-26 09:50 -37.79960 175.35692 1194 ft 125 kts 196°
2026-04-26 09:50 -37.80771 175.35415 1081 ft 120 kts 197°
2026-04-26 09:51 -37.81569 175.35097 914 ft 119 kts 202°
2026-04-26 09:51 -37.82362 175.34772 738 ft 120 kts 195°
2026-04-26 09:51 -37.83149 175.34513 626 ft 116 kts 195°
2026-04-26 09:51 -37.83901 175.34244 536 ft 102 kts 199°
2026-04-26 09:52 -37.84530 175.34005 388 ft 92 kts 196°
2026-04-26 09:52 -37.85718 175.33571 190 ft 82 kts 196°
2026-04-26 09:52 -37.86178 175.33402 168 ft 57 kts 198°
2026-04-26 09:53 -37.86504 175.33284 167 ft 27 kts 195°
2026-04-26 09:53 -37.86523 175.33277 167 ft 0 kts 195°